{"data":{"norad_id":67259,"intl_designator":"2025-313M","name":"2025-313M","alt_names":[],"object_type":"PAYLOAD","status":"ACTIVE","operator":null,"country":"TBD","launch_date":"2025-12-28","launch_site_code":"VOSTO","launch_vehicle":null,"mission":null,"orbit_class":"UNKNOWN","rcs_meters":null,"size_class":null,"mass_kg":null,"dimensions":null,"purposes":[],"wikipedia_slug":null,"has_3d_model":false,"image_url":null,"decayed_at":null,"tle_current":{"epoch":"2026-05-24T03:46:46.734240Z","epoch_age_seconds":147903,"freshness":"FRESH","line1":"1 67259U 25313M   26144.15748535  .00010740  00000+0  44613-3 0  9990","line2":"2 67259  97.3973 219.3868 0015941  88.6934 271.6129 15.23881454 22300","mean_motion":15.23881454,"eccentricity":0.0015941,"inclination_deg":97.3973,"raan_deg":219.3868,"arg_perigee_deg":88.6934,"mean_anomaly_deg":271.6129,"bstar":0.00044613,"rev_number":2230,"period_min":94.49553941484,"perigee_km":483.19115977395,"apogee_km":505.1013732843,"semimajor_km":6872.2832665291,"source":"CELESTRAK","updated_at":"2026-05-25T13:38:06.846841Z"}}}